Regional Weather Roundup
Issued by NWS Lake Charles, LA

Home | Current Version | Previous Version | Text Only | Print | Product List | Glossary On
Versions: 1 2 3 4 5 6 7 8 9 10 11 12 13 14 15 16 17 18 19 20 21 22 23 24 25 26 27
000
ASUS44 KLCH 241610
RWRLCH
REGIONAL WEATHER ROUNDUP
NATIONAL WEATHER SERVICE LAKE CHARLES LA
1100 AM CDT SUN JUL 24 2016

Note: "fair" indicates few or no clouds below 12,000 feet with no
significant weather and/or obstructions to visibility.


ACROSS SOUTHEAST TEXAS

CITY           SKY/WX    TMP DP  RH WIND       PRES   REMARKS
BEAUMONT       PTSUNNY   88  78  72 S8        29.99S HX 101
BEAUMONT CITY  PTSUNNY   91  75  60 CALM      29.99S HX 101
ORANGE         PTSUNNY   85  76  75 CALM      30.00F
JASPER         SUNNY     88  73  60 W8        30.02S
$$

ACROSS CENTRAL LOUISIANA

CITY           SKY/WX    TMP DP  RH WIND       PRES   REMARKS
LEESVILLE      MOSUNNY   89  74  62 W8        30.00S
FULLERTON      FAIR      90  75  61 CALM      29.97S HX 100
ALEXANDRIA INT MOSUNNY   90  76  63 NW7       29.98S HX 101
ESLER FIELD    PTSUNNY   90  78  68 VRB6      30.00S HX 104
DERIDDER       FAIR      89  75  62 W3        30.02S
OAKDALE        PTSUNNY   89  78  68 CALM      29.99F HX 103
OPELOUSAS      FAIR      88  76  67 NW9       29.99F
$$

ACROSS SOUTHWEST AND SOUTH CENTRAL LOUISIANA

CITY           SKY/WX    TMP DP  RH WIND       PRES   REMARKS
SULPHUR        MOSUNNY   88  74  63 W13G20    30.00S
LAKE CHARLES   MOSUNNY   89  76  65 VRB5      29.98F HX 100
CHENNAULT INT  NOT AVBL
CAMERON PHI    SUNNY     88  75  66 VRB5      29.98F
DEQUINCY       PTSUNNY   86  75  69 CALM      30.00S
JENNINGS       FAIR      88  75  66 CALM      29.99S
LAFAYETTE      PTSUNNY   89  76  65 NW7       29.99F HX 100
NEW IBERIA     CLOUDY    88  76  67 NW6       29.99F
ABBEVILLE      PTSUNNY   86  76  72 W7        30.00S
PATTERSON      MOSUNNY   88  76  67 CALM      29.99F
SALT POINT       N/A     87  77  72 VRB5      29.97F
$$

SELECTED SITES ACROSS THE REGION

CITY           SKY/WX    TMP DP  RH WIND       PRES   REMARKS
HOUSTON BUSH   MOSUNNY   90  72  55 VRB6      29.98S
HOUSTON HOBBY  MOSUNNY   89  75  63 SW6       29.97S
GALVESTON      PTSUNNY   88  76  67 VRB5      29.99S
COLLEGE STAT   MOSUNNY   89  75  63 SW8       29.99S
CONROE         SUNNY     90  73  57 S5        29.99S
HUNTSVILLE     SUNNY     89  71  55 SW7       30.00R
LUFKIN         MOSUNNY   88  75  65 VRB5      29.99F
SHREVEPORT     MOSUNNY   90  76  63 VRB3      29.99R HX 101
MONROE         CLOUDY    87  79  76 CALM      30.00R HX 101
NATCHEZ MS     CLOUDY    79  73  83 S6        30.03R
BATON ROUGE    MOSUNNY   88  76  67 NW7       29.99F
N.O. INTL ARPT CLOUDY    88  77  69 VRB3      30.00R HX 100
SLIDELL        CLOUDY    85  79  82 S7        30.01R
$$

MARINE REPORTS

STATION/POSITION TIME  SKY/WX   TEMP    WIND        PRES    VSBY
                                AIR SEA DIR/SP/G
                 (UTC)          (F)     (DEG/KT/KT) (MB)    (MI)
BUOY 30 S HIGH I 1550            86 89  240/  4/  6 1015.4R
WVE H/P(F/S)=  2/ 4

SEA RIM ST PARK  1600            79      90/  4/  5 1016.3F
PORT ARTHUR      1500               89  260/  7/  9 1015.7R
SABINE PASS N    1500            87 90  260/  6/ 13 1017.0R
TEXAS POINT      NOT AVBL
CALCASIEU PASS   1500            84 88  250/  7/ 12 1015.0R
LK CHARLES BEACH 1500            86 89              1016.1R
MARSH ISLAND     1500            83                   N/A
FRESH WATER LOCK 1500            83 88  250/ 14/ 17 1016.7R
AMERADA PASS     1500            85 86  290/  6/  8 1015.9R
$$




USA.gov is the U.S. government's official web portal to all federal, state and local government web resources and services.